Flag for U.S.A. Weather past 2 weeks in St. Louis, Missouri, U.S.A.

Now
64 °F

Passing clouds.


Feels Like: 64 °F
Forecast: 60 / 78 °F
Wind: 7 mph from Southwest

Location: Lambert-St. Louis International Airport

Current Time: Oct 25, 2014 at 1:18:59 AM

Latest Report: Oct 25, 2014 at 12:51 AM


Visibility: 10 mi

Pressure: 29.97 "Hg

Humidity: 73%

Dew point: 55 °F

Location of St. LouisLocation

Historic Weather in St. Louis — Graph

°F

St. Louis temperature yesterday

Maximum temperature yesterday: 74 °F (at 2:51 PM)
Minimum temperature yesterday: 53 °F (at 3:51 AM)
Average temperature yesterday: 64 °F

Past Weeks' High & Low Weather Summary

 TemperatureHumidityPressure
High74 °F (Oct 20, 2:51 PM)97% (Oct 13, 5:51 AM)30.33 "Hg (Oct 13, 5:51 AM)
Low43 °F (Oct 19, 3:51 AM)33% (Oct 20, 3:51 PM)29.42 "Hg (Oct 14, 5:51 AM)
Average58 °F72%29.97 "Hg
* Reported Oct 9 11:51 PM — Oct 24 11:51 PM, St. Louis, Weather by CustomWeather, © 2014

Note: Actual official high and low records may vary slightly from our data, if they occured in-between our weather recording intervals... More about our weather records

Advertising

St. Louis weather history for previous 24 hours

 ConditionsComfort  
Time TempWeatherWind HumidityBarometerVisibility
11:51 PM
Oct 24
65 °FPassing clouds.8 mph70%29.97 "Hg10 mi
10:51 PM65 °FPassing clouds.5 mph61%29.98 "Hg10 mi
9:51 PM67 °FPassing clouds.5 mph53%29.98 "Hg10 mi
8:51 PM67 °FPassing clouds.6 mph53%29.98 "Hg10 mi
7:51 PM69 °FPartly cloudy.5 mph49%29.99 "Hg10 mi
6:51 PM70 °FPartly sunny.5 mph47%29.99 "Hg10 mi
5:51 PM71 °FPartly sunny.5 mph45%29.99 "Hg10 mi
4:51 PM74 °FPartly sunny.6 mph36%30.00 "Hg10 mi
3:51 PM74 °FPartly sunny.8 mph46%30.01 "Hg10 mi
2:51 PM74 °FPartly sunny.5 mph48%30.03 "Hg10 mi
1:51 PM72 °FPartly sunny.6 mph49%30.05 "Hg10 mi
12:51 PM70 °FPartly sunny.No wind57%30.07 "Hg10 mi
11:51 AM68 °FPartly sunny.6 mph65%30.10 "Hg10 mi
10:51 AM63 °FBroken clouds.3 mph75%30.11 "Hg8 mi
9:51 AM61 °FBroken clouds.3 mph81%30.12 "Hg8 mi
8:51 AM58 °FMostly cloudy.7 mph81%30.11 "Hg10 mi
7:51 AM57 °FLow clouds.6 mph81%30.10 "Hg9 mi
6:51 AM54 °FPassing clouds.6 mph83%30.09 "Hg10 mi
5:51 AM55 °FPassing clouds.3 mph80%30.09 "Hg10 mi
4:51 AM54 °FPassing clouds.3 mph80%30.09 "Hg10 mi
3:51 AM53 °FPassing clouds.No wind80%30.07 "Hg10 mi
2:51 AM54 °FPassing clouds.No wind74%30.08 "Hg10 mi
1:51 AM57 °FPassing clouds.3 mph69%30.07 "Hg10 mi
Weather by CustomWeather, © 2014

See weather overviewHow to use our weather pages